This is the latest recevied weather packets stored in our database for station/object WZ8H. If no packets are shown the sender has not sent any weather packets the latest 10 day(s).
| Time | Temp. | Humidity | Pressure | Rain* | Wind** | Luminosity | Snow |
|---|---|---|---|---|---|---|---|
| 1778092194 | 13.89° C | 52% | 1011.5 hPa | 0 mm | - | 921 W/m² | - |
| 1778091864 | 13.89° C | 55% | 1011.6 hPa | 0 mm | - | 636 W/m² | - |
| 1778091564 | 13.89° C | 53% | 1011.6 hPa | 0 mm | - | 742 W/m² | - |
| 1778091258 | 13.89° C | 53% | 1011.6 hPa | 0 mm | - | 807 W/m² | - |
| 1778090955 | 13.89° C | 54% | 1011.5 hPa | 0 mm | - | 666 W/m² | - |
| 1778090653 | 13.89° C | 55% | 1011.5 hPa | 0 mm | - | 666 W/m² | - |
| 1778090349 | 13.33° C | 59% | 1011.5 hPa | 0 mm | - | 664 W/m² | - |
| 1778090024 | 13.33° C | 57% | 1011.6 hPa | 0 mm | - | 540 W/m² | - |
| 1778089721 | 13.33° C | 55% | 1011.7 hPa | 0 mm | - | 621 W/m² | - |
| 1778089419 | 13.89° C | 58% | 1011.7 hPa | 0 mm | - | 499 W/m² | - |
| 1778089088 | 13.89° C | 59% | 1011.8 hPa | 0 mm | - | 591 W/m² | - |
| 1778088766 | 13.33° C | 60% | 1011.8 hPa | 0 mm | - | 1130 W/m² | - |
| 1778088456 | 13.33° C | 60% | 1011.9 hPa | 0 mm | - | 895 W/m² | - |
| 1778088130 | 13.33° C | 59% | 1011.9 hPa | 0 mm | - | 1025 W/m² | - |
| 1778087829 | 13.33° C | 60% | 1011.8 hPa | 0 mm | - | 838 W/m² | - |
| 1778087525 | 13.33° C | 60% | 1011.9 hPa | 0 mm | - | 1018 W/m² | - |
| 1778087202 | 12.78° C | 62% | 1011.9 hPa | 0 mm | - | 1041 W/m² | - |
| 1778086897 | 12.78° C | 61% | 1011.9 hPa | 0 mm | - | 798 W/m² | - |
| 1778086594 | 12.78° C | 63% | 1011.8 hPa | 0 mm | - | 812 W/m² | - |
| 1778086267 | 12.78° C | 67% | 1011.9 hPa | 0 mm | - | 853 W/m² | - |
| 1778085964 | 12.78° C | 65% | 1011.9 hPa | 0 mm | - | 891 W/m² | - |
| 1778085661 | 12.78° C | 67% | 1011.9 hPa | 0 mm | - | 942 W/m² | - |
| 1778085358 | 12.22° C | 69% | 1012 hPa | 0 mm | - | 946 W/m² | - |
| 1778085033 | 12.22° C | 67% | 1011.9 hPa | 0 mm | - | 1072 W/m² | - |
| 1778084734 | 12.22° C | 69% | 1011.9 hPa | 0 mm | - | 510 W/m² | - |
* Rain latest hour (hover to see other rain measurements)
** Current wind speed in m/s (hover to see current wind gust speed)